OPS 4682 DEB, 38390

Orbit data source: Space-Track

OPS 4682 DEB, 38390 is space debris in LEO originally from a launch on Sat, 03 Apr 1965 UTC launched from the Air Force Western Test Range (AFWTR). Debris objects in space refer to the collection of defunct objects orbiting the Earth. Examples of debris include non-operational satellites, rocket bodies, and fragments generated from explosions, collisions, or faulty payload assembly.

Loading next visibility...
Identifier
38390, 1965-027CT
Orbit
LEO
Country
Flag of USUS
Related business
Manufacturer
Unknown
Mission
Spacecraft
Bus & Motor
Unknown
Mass
Unknown
Launch date (UTC)
1965-04-03 (61 years ago)
Launch vehicle
Unknown
Launch site
Air Force Western Test Range (AFWTR)
Object type
Payload
Rocket body
Debris
Shape & HBR
Unknown shape, 0.1 m
Radar Cross Section
Small (<0.1 m²)

Expand to show TLE details & history
Last TLE update: 2 days ago

TLE from 2 days ago
0 OPS 4682 DEB
1 38390U 65027CT  26034.14022474 -.00000179  00000-0 -64073-3 0  9994
2 38390  90.2323 356.0751 0032823  53.1386 307.2736 12.97711079595310
Epoch: 2026-02-03T03:21Z
TLE epoch observation values (Epoch: 2026-02-03T03:21:55.417Z)
Latitude
-0.00006°
Longitude
172.26876°
Altitude
1,258.792 km
Speed
7.233 km/s
True Right ascension
23h 44m 18s
True Declination
0° 00' 00"
Sunlit
Object was in daylight at epoch
Visualization orbit readout
Latitude
Unknown
Longitude
Unknown
Altitude
Unknown
Speed
Unknown
Apparent Right ascension
Unknown
Apparent Declination
Unknown
Sunlit
N/A
Visualization observer readout
Local Sidereal Time
13:53:44
Azimuth
Unknown
Elevation
Unknown
Doppler factor
Unknown
Orbital elements
Apogee altitude
1,293.296 km
Perigee altitude
1,243.101 km
Semi-major axis
7,646.335 km
Eccentricity
0.00328
Inclination
90.2323°
RAAN
356.0751°
Arg. of periapsis
53.1386°
True anomaly
306.97355°
Mean anomaly
307.2736°
Eccentric anomaly
307.12365°
Mean motion
3.24611 °/min
Orbital period
110.9 mins
BSTAR
-0.00064073
Loading maneuver chart data...
Computing Atmospheric mass density...
Loading historical data...
Loading historical data...
Loading historical data...
Loading historical data...
Loading historical data...
Loading historical data...
Loading historical data...

Documentation

Showing up to 5 results
|